AirNav   Everest Fuels
 
 1063 users online  

I61 Hagerstown Airport
Hagerstown, Indiana, USA

GOING TO HAGERSTOWN?


FAA INFORMATION EFFECTIVE 16 JUNE 2022

Location

FAA Identifier: I61
Lat/Long: 39-53-21.0000N 085-09-48.0000W
39-53.350000N 085-09.800000W
39.8891667,-85.1633333
(estimated)
Elevation: 1000 ft. / 305 m (estimated)
Variation: 03W (1985)
From city: 1 mile S of HAGERSTOWN, IN
Time zone: UTC -4 (UTC -5 during Standard Time)
Zip code: 47346

Airport Operations

Airport use: Open to the public
Activation date: 05/1957
Control tower: no
ARTCC: INDIANAPOLIS CENTER
FSS: TERRE HAUTE FLIGHT SERVICE STATION
NOTAMs facility: HUF (NOTAM-D service available)
Attendance: UNATNDD
Wind indicator: lighted
Segmented circle: no
Lights: ACTVT LIRL RWY 02/20 - CTAF.

Airport Communications

CTAF/UNICOM: 123.0
WX AWOS-3 at CEV (12 nm S): 118.325 (765-827-6649)
WX AWOS-3 at RID (17 nm SE): 121.225 (765-983-1903)

Airport Services

Parking: tiedowns
Airframe service: NONE
Powerplant service: NONE
Bottled oxygen: NONE
Bulk oxygen: NONE

Runway Information

Runway 2/20

Dimensions: 4000 x 200 ft. / 1219 x 61 m
Surface: turf, in good condition
Runway edge lights: low intensity
Runway edge markings: DTHR MKD BY LGTS & YELLOW TIRES.
RUNWAY 2  RUNWAY 20
Latitude: 39-53.031000N39-53.650000N
Longitude: 085-09.996167W085-09.703667W
Elevation: 990.0 ft.990.0 ft.
Traffic pattern: leftleft
Displaced threshold: 200 ft.1070 ft.
Markings: NSTDNSTD
Runway end identifier lights: no
Obstructions: 50 ft. trees, 350 ft. from runway, 160 ft. left of centerline, 7:1 slope to clear
APCH SLOPE 20:1 FM DTHR; 75 FT TREES 1645 FT FM DTHR.
80 ft. trees, 180 ft. from runway, 90 ft. right of centerline, 2:1 slope to clear
APCH SLOPE 21:1 FM DTHR; 30 FT TREES 640 FT FM DTHR.

Airport Ownership and Management from official FAA records

Ownership: Publicly-owned
Owner: TOWN OF HAGERSTOWN
49 E COLLEGE ST
HAGERSTOWN, IN 47346
Phone 765-489-6171
Manager: MIKE HABZANSKY
49 E COLLEGE ST
HAGERSTOWN, IN 47346
Phone 765-520-7032

Airport Operational Statistics

Aircraft based on the field: 9
Single engine airplanes: 8
Ultralights: 1
    
Aircraft operations: avg 39/week *
63% transient general aviation
37% local general aviation
* for 12-month period ending 31 December 2019

Additional Remarks

FOR CD CTC COLUMBUS APCH AT 614-338-8537

Instrument Procedures

There are no published instrument procedures at I61.

Some nearby airports with instrument procedures:

KUWL - New Castle Henry County Airport / Marlatt Field (7 nm W)
KCEV - Mettel Field Airport (12 nm S)
KRID - Richmond Municipal Airport (17 nm SE)
I22 - Randolph County Airport (20 nm NE)
KMIE - Delaware County Regional Airport (24 nm NW)
 
Loc | Ops | Rwys | IFR | FBO | Links
Com | Nav | Svcs | Stats | Notes
Area around I61 (Hagerstown Airport)
 
Road maps at: MapQuest Bing Google
 
Aerial photo
WARNING: Photo may not be current or correct
Aerial photo of I61 (Hagerstown Airport)
Photo by by Wally Dilling
Photo taken 29-May-2006
north view

Do you have a better or more recent aerial photo of Hagerstown Airport that you would like to share? If so, please send us your photo.

 
Sectional chart

 
Airport distance calculator
Flying to Hagerstown Airport? Find the distance to fly.

From to I61

Sunrise and sunset
Times for 02-Jul-2022
 Local
(UTC-4)
 Zulu
(UTC)
Morning civil twilight05:4509:45
Sunrise06:1710:17
Sunset21:1201:12
Evening civil twilight21:4501:45

Current date and time
Zulu (UTC)  02-Jul-2022 20:06:06
Local (UTC-4)  02-Jul-2022 16:06:06
 
METAR
KRID 
17nm SE 
021955Z AUTO 31006KT 10SM CLR 28/17 A3005 RMK AO2
KMIE 
23nm NW 
021953Z 27006KT 10SM CLR 29/09 A3003 RMK AO2 WSHFT 1840 SLP155 T02940094
KAID 
25nm NW 
021959Z 30008KT 260V320 10SM CLR 29/07 A3004
KOXD 
29nm SE 
021955Z AUTO 02005KT 10SM CLR 31/18 A3003 RMK AO2 T03100176
KHLB 
33nm S 
021955Z AUTO 00000KT 10SM CLR 29/16 A3002 RMK A01
TAF
KDAY 
44nm E 
021743Z 0218/0318 34007KT P6SM FEW040 FM022300 35006KT P6SM BKN250 FM030500 01004KT P6SM BKN150 FM030900 02003KT P6SM SCT180 FM031300 07005KT P6SM SKC
NOTAMs
Click for the latest NOTAMs
NOTAMs are issued by the DoD/FAA and will open in a separate window not controlled by AirNav.

 

 
 

Would you like to see your business listed on this page?

 If your business provides an interesting product or service to pilots, flight crews, aircraft, or users of the Hagerstown Airport, you should consider listing it here.  To start the listing process, click on the button below
 
Add a business
 

Other Pages about Hagerstown Airport

Update a link
 
Copyright © AirNav, LLC. All rights reserved. Privacy Policy  Contact